Regional Weather Roundup
Issued by NWS

Home | Current Version | Previous Version | Graphics & Text | Print | Product List | Glossary On
Versions: 1 2 3 4 5 6 7 8 9 10 11 12 13 14 15 16 17 18 19 20 21 22 23 24 25 26 27 28 29 30 31 32 33 34 35 36 37 38 39 40 41 42 43 44 45 46 47 48 49 50
000
ASUS43 KLSX 221307
RWRMO

WEATHER SUMMARY FOR MISSOURI
NATIONAL WEATHER SERVICE SPRINGFIELD MO
800 AM CDT MON SEP 22 2014

NOTE: "FAIR" INDICATES FEW OR NO CLOUDS BELOW 12,000 FEET WITH NO
       SIGNIFICANT WEATHER AND/OR OBSTRUCTIONS TO VISIBILITY.
       CURRENT SKY AND/OR WEATHER CONDITIONS ARE NOT AVAILABLE FOR
       CHILLICOTHE AND FARMINGTON.

MOZ001>031-035>038-043-044-053-054-221400-
...NORTHERN AND WESTERN MISSOURI...

CITY           SKY/WX    TMP DP  RH WIND       PRES   REMARKS
KANSAS CTY INT CLEAR     50  48  93 NW7       30.32R
KANSAS C DTWN  CLEAR     53  51  93 CALM      30.32R
LEE`S SUMMIT   CLEAR     52  49  89 N3        30.32R
ST JOSEPH      PTCLDY    48  48 100 CALM      30.33R
CHILLICOTHE      N/A     52  49  89 CALM      30.33R
KIRKSVILLE     SUNNY     51  48  89 CALM      30.32R

$$
MOZ066>068-077>081-088>096-101>105-221400-
...SOUTHWEST MISSOURI...

CITY           SKY/WX    TMP DP  RH WIND       PRES   REMARKS
SPRINGFIELD    SUNNY     52  48  86 CALM      30.29R
JOPLIN         CLEAR     52  50  93 NE6       30.30R

$$
MOZ032>034-039>042-045>050-055>058-069>072-221400-
...CENTRAL MISSOURI...

CITY           SKY/WX    TMP DP  RH WIND       PRES   REMARKS
COLUMBIA       SUNNY     52  50  93 NW6       30.30R
JEFFERSON CITY FOG       50  50 100 W5        30.30R VSB 1/4
ROLLA          SUNNY     53  50  89 NW3       30.28R
SEDALIA        SUNNY     53  49  86 N3        30.32R
WHITEMAN AFB   SUNNY     51  49  93 CALM      30.31R
OSAGE BEACH    SUNNY     50  46  87 CALM      30.30R

$$
MOZ051-052-059>065-221400-
...EAST CENTRAL MISSOURI...

CITY           SKY/WX    TMP DP  RH WIND       PRES   REMARKS
ST LOUIS INTL  SUNNY     57  50  77 CALM      30.28R
SPIRIT OF STL  SUNNY     53  51  93 CALM      30.27R
ST CHARLES     SUNNY     56  50  80 N8        30.27R

$$
MOZ072>076-082>087-097>100-106>115-221400-
...SOUTH CENTRAL AND SOUTHEAST MISSOURI...

CITY           SKY/WX    TMP DP  RH WIND       PRES   REMARKS
CAPE GIRARDEAU SUNNY     54  51  90 CALM      30.25R
FARMINGTON     SUNNY     52  48  87 W3        30.29R
POPLAR BLUFF   SUNNY     57  51  80 N5        30.24R
WEST PLAINS    SUNNY     54  49  83 CALM      30.29R

$$


USA.gov is the U.S. government's official web portal to all federal, state and local government web resources and services.